Regional Weather Roundup
Issued by NWS

Home | Current Version | Previous Version | Text Only | Print | Product List | Glossary On
Versions: 1 2 3 4 5 6 7 8 9 10 11 12 13 14 15 16 17 18 19 20 21 22 23 24 25 26 27 28 29 30 31 32 33 34 35 36 37 38 39 40 41 42 43 44 45 46 47 48 49 50
000
ASUS45 KPSR 170910
RWRAZ

ARIZONA HOURLY REGIONAL WEATHER ROUNDUP
NATIONAL WEATHER SERVICE PHOENIX AZ
200 AM MST TUE JAN 17 2017

NOTE: FAIR INDICATES FEW OR NO CLOUDS BELOW 12,000 FEET WITH NO
SIGNIFICANT WEATHER AND/OR OBSTRUCTIONS TO VISIBILITY.

AZZ001>003-036-171000-
NORTHWEST ARIZONA

CITY           SKY/WX    TMP DP  RH WIND       PRES   REMARKS
KINGMAN        CLEAR     37  19  48 NE7       30.09S WCI  32
$$

AZZ004>008-015-016-018-171000-
NORTH CENTRAL ARIZONA

CITY           SKY/WX    TMP DP  RH WIND       PRES   REMARKS
GRAND CANYON   CLEAR     22  21  96 CALM      30.09S
WILLIAMS       CLEAR     27  25  93 CALM      30.07S
PRESCOTT       PTCLDY    31  30  96 SW3       30.07S
FLAGSTAFF      PTCLDY    26  23  88 CALM      30.07S
PAYSON         CLEAR     36  36 100 VRB3      30.09S
PAGE           CLEAR     36  26  67 SE3       30.10S
$$

AZZ009>014-017-171000-
NORTHEAST ARIZONA

CITY           SKY/WX    TMP DP  RH WIND       PRES   REMARKS
WINSLOW        CLOUDY    36  32  85 W8        30.09R WCI  30
SAINT JOHNS    CLOUDY    36  35  96 CALM      30.07S
SHOW LOW       CLOUDY    32  32 100 CALM      30.09R
$$

AZZ023-171000-
GREATER PHOENIX AREA

CITY           SKY/WX    TMP DP  RH WIND       PRES   REMARKS
PHOENIX        PTCLDY    49  42  77 CALM      30.02F
BUCKEYE          N/A     46  37  71 N7        30.04S
LUKE AFB       CLEAR     46  40  79 NW3       30.02S
DEER VALLEY    CLEAR     46  41  82 CALM      30.03S
SCOTTSDALE     CLEAR     47  41  80 NW3       30.04S
MESA-GATEWAY   CLEAR     43  41  93 SE5       30.04S
$$

AZZ027-028-171000-
SOUTHWEST MARICOPA COUNTY AND PINAL COUNTY

CITY           SKY/WX    TMP DP  RH WIND       PRES   REMARKS
CASA GRANDE    CLEAR     43  40  89 CALM      30.04S
$$

AZZ503-504-507>509-171000-
SOUTHEAST ARIZONA

CITY           SKY/WX    TMP DP  RH WIND       PRES   REMARKS
TUCSON         CLEAR     44  41  89 CALM      30.04F
DAVIS-MONTHAN  CLEAR     42  42 100 S5        30.03S
NOGALES        CLEAR     38  35  89 CALM      30.01F
SIERRA VISTA   CLEAR     36  34  91 SE5       30.04S WCI  32
DOUGLAS        CLEAR     34  32  92 NE7       30.03F WCI  28
SAFFORD        CLEAR     37  35  92 CALM      30.04R
$$

AZZ020-021-025-026-031-171000-
SOUTHWEST ARIZONA

CITY           SKY/WX    TMP DP  RH WIND       PRES   REMARKS
YUMA           CLEAR     51  28  41 N5        30.06S
$$

CAZ031-033-041-043-047-048-061-171000-
SOUTHERN CALIFORNIA

CITY           SKY/WX    TMP DP  RH WIND       PRES   REMARKS
DOWNTOWN L.A.  CLEAR     52  48  86 CALM      30.05F
L.A. AIRPORT   CLEAR     54  51  90 CALM      30.06F
SAN DIEGO      PTCLDY    53  48  83 N3        30.07F
BURBANK        CLEAR     46  38  73 CALM      30.05F
ONTARIO        CLEAR     53  34  48 W5        30.06S
RIVERSIDE      CLEAR     41  30  65 E3        30.07S
PALM SPRINGS   CLEAR     51  29  42 CALM      30.10F
EL CENTRO NAS  CLEAR     46  41  82 W8        30.08F
IMPERIAL       CLEAR     46  41  82 CALM      30.06F
BLYTHE         CLEAR     45  34  65 CALM      30.07S
NEEDLES        CLEAR     53  23  31 N10       30.08S
$$

NVZ020-UTZ003-171000-
SOUTHERN NEVADA-UTAH

CITY           SKY/WX    TMP DP  RH WIND       PRES   REMARKS
LAS VEGAS      CLEAR     42  22  44 S3        30.12S
SALT LAKE CITY PTCLDY    22  17  81 CALM      30.28F
$$

NMZ009-TXZ055-171000-
NEW MEXICO-WEST TEXAS

CITY           SKY/WX    TMP DP  RH WIND       PRES   REMARKS
ALBUQUERQUE    CLOUDY    40  34  79 E9        30.11R WCI  34
EL PASO        PTCLDY    42  36  79 N9        30.05R
$$


........................KEY........................
SKY/WX - SKY CONDITION/WEATHER
TMP    - TEMPERATURE IN FAHRENHEIT
DP     - DEW POINT IN FAHRENHEIT
RH     - RELATIVE HUMIDITY IN PERCENT
WIND   - DIRECTION AND SPEED IN MILES PER HOUR (MPH)
VRB    - VARIABLE WIND DIRECTION
PRES   - MEAN SEA LEVEL PRESSURE IN INCHES OF MERCURY
         F - FALLING PRESSURE   R - RISING PRESSURE
         S - STEADY PRESSURE
VSB    - VISIBILITY IN MILES
HX     - HEAT INDEX IN FAHRENHEIT
WCI    - WIND CHILL INDEX IN FAHRENHEIT
TC     - TEMPERATURE IN CELSIUS WHICH IS ALSO KNOWN AS
         TEMPERATURE IN CENTIGRADE
AFB    - AIR FORCE BASE
         LUKE AFB IS LUKE AIR FORCE BASE
         DAVIS-MONTHAN IS DAVIS-MONTHAN AIR FORCE BASE
NAS    - NAVAL AIR STATION
         EL CENTRO NAS IS EL CENTRO NAVAL AIR STATION
N/A    - NOT AVAILABLE




USA.gov is the U.S. government's official web portal to all federal, state and local government web resources and services.